IRIDIUM 49 [P]

Last updated on Feb. 14, 2018, 4:08 p.m. UTC

1 25108U 97082E   18044.38151829  .15890926 -13830-5  16009-3 0  9996
2 25108  86.3590 152.6916 0048274 278.8562  80.6143 16.45745255 55198

Satellite is not in orbit.